SCP
0 0 0 0 0 0 0 0 0 0 0 0 0 0 0 0 0 0 0 0 0 0 1 1 1 1 1 1 1 1 1 1 0 0 0 0 0 0 0 0 0 0 0
0 0 0 0 0 0 0 0 0 0 0 0 0 0 0 0 0 0 0 0 0 0 1 1 1 1 1 1 1 1 1 1 1 1 1 0 0 0 0 0 0 0 0
0 0 0 0 0 0 0 0 0 0 0 0 0 0 0 0 0 0 0 0 0 0 1 1 1 1 1 1 1 1 1 1 1 1 1 1 1 1 0 0 0 0 0
0 0 0 0 0 0 0 0 0 0 0 0 0 0 0 0 0 0 0 0 0 0 1 1 1 1 1 1 1 1 1 1 1 1 1 1 1 1 1 1 1 0 0
0 0 0 0 0 0 0 0 0 0 0 0 0 0 0 0 0 0 0 0 0 0 1 1 1 1 2 1 1 1 1 1 1 2 2 2 1 1 1 1 1 1 0
0 0 0 0 0 0 0 0 0 0 0 0 0 0 0 0 0 0 0 0 0 0 0 1 1 1 1 1 1 1 1 1 1 2 2 2 1 1 1 1 1 1 1
0 0 0 0 0 0 0 0 0 0 0 0 0 0 0 0 0 0 0 0 0 0 0 0 0 1 1 1 1 1 1 1 1 1 2 2 1 1 1 1 1 1 1
0 0 0 0 0 0 0 0 0 0 0 0 0 0 0 0 0 0 0 0 0 0 0 0 0 0 0 1 1 1 1 1 1 1 1 1 1 1 1 1 1 1 1
0 0 0 0 0 0 0 0 0 0 0 0 0 0 0 0 0 0 0 0 0 0 0 0 0 0 0 0 0 1 1 1 1 1 1 1 2 1 1 1 1 1 1
0 0 0 0 0 0 0 0 0 0 0 0 0 0 0 0 0 0 0 0 0 0 0 0 0 0 0 0 0 1 1 1 1 1 2 2 2 2 1 1 1 1 1
0 0 0 0 0 0 0 0 0 0 0 0 0 0 0 0 0 0 0 0 0 0 0 0 0 0 0 0 0 0 1 1 2 2 2 2 2 2 2 1 1 1 1
0 0 0 0 0 0 0 0 0 0 0 0 0 0 0 0 0 0 0 0 0 0 0 0 0 0 0 0 0 0 0 1 2 2 2 2 2 2 1 1 1 0 0
0 0 0 0 0 0 0 0 0 0 0 0 0 0 0 0 0 0 0 0 0 0 0 0 0 0 0 0 0 0 0 1 1 1 1 1 1 1 1 1 0 0 0
0 0 0 0 0 0 0 0 0 0 0 0 0 0 0 0 0 0 0 0 0 0 0 0 0 0 0 0 0 0 0 0 0 0 0 0 0 0 0 0 0 0 0
0 0 0 0 0 0 0 0 0 0 0 0 0 0 0 0 0 0 0 0 0 0 0 0 0 0 0 0 0 0 0 0 0 0 0 0 0 0 0 0 0 0 0
0 0 0 0 0 0 0 0 0 0 0 0 0 0 0 0 0 0 0 0 0 0 0 0 0 0 0 0 0 0 0 0 0 0 0 0 0 0 0 0 0 0 0
0 0 0 0 0 0 0 0 0 0 0 0 0 0 0 0 0 0 0 0 0 0 0 0 0 0 0 0 0 0 0 0 0 0 0 0 0 0 0 0 0 0 0
0 0 0 0 0 0 0 0 0 0 0 0 0 0 0 0 0 0 0 0 0 0 0 0 0 0 0 0 0 0 0 0 0 0 0 0 0 0 0 0 0 0 0
0 0 0 0 0 0 0 0 0 0 0 0 0 0 0 0 0 0 0 0 0 0 0 0 0 0 0 0 0 0 0 0 0 0 0 0 0 0 0 0 0 0 0
0 0 0 0 0 0 0 0 0 0 0 0 0 0 0 0 0 0 0 0 0 0 0 0 0 0 0 0 0 0 0 0 0 0 0 0 0 0 0 0 0 0 0
0 0 0 0 0 0 0 0 0 0 0 0 0 0 0 0 0 0 0 0 0 0 0 0 0 0 0 0 0 0 0 0 0 0 0 0 0 0 0 0 0 0 0
0 0 0 0 0 0 0 0 0 0 0 0 0 0 0 0 0 0 0 0 0 0 0 0 0 0 0 0 0 0 0 0 0 0 0 0 0 0 0 0 0 0 0
0 0 0 0 0 0 0 0 0 0 0 0 0 0 0 0 0 0 0 0 0 0 0 0 0 0 0 0 0 0 0 0 0 0 0 0 0 0 0 0 0 0 0
0 0 0 0 0 0 0 0 0 0 0 0 0 0 0 0 0 0 0 0 0 0 0 0 0 0 0 0 0 0 0 0 0 0 0 0 0 0 0 0 0 0 0
0 0 0 0 0 0 0 0 0 0 0 0 0 0 0 0 0 0 0 0 0 0 0 0 0 0 0 0 0 0 0 0 0 0 0 0 0 0 0 0 0 0 0
0 0 0 0 0 0 0 0 0 0 0 0 0 0 0 0 0 0 0 0 0 0 0 0 0 0 0 0 0 0 0 0 0 0 0 0 0 0 0 0 0 0 0
Wind_Speed
10 10 7 5 4 3 3 3 3 4 5 5 5 5 6 6 5 5 4 11 14 16 17 19 18 18 18 18 17 16 15 15 13 12 11 9 8 7 6 5 4 3 3
10 10 10 8 6 4 3 3 4 4 4 4 5 5 6 6 5 6 6 8 13 15 18 20 20 20 20 19 18 17 17 16 15 14 12 11 9 8 7 5 4 4 4
12 11 10 10 8 7 6 4 5 4 4 4 6 6 5 6 6 7 7 6 7 11 16 20 21 20 20 20 19 18 18 17 16 14 13 12 10 9 8 6 5 4 4
13 11 10 9 10 9 6 5 5 4 4 4 5 5 5 5 7 7 6 6 6 6 10 17 19 20 20 20 19 19 18 17 16 16 15 13 11 10 9 7 6 4 4
13 11 9 9 11 9 7 7 6 4 5 5 6 6 5 6 6 6 6 7 7 7 6 10 15 16 17 20 20 20 19 19 18 17 16 14 13 11 10 8 6 5 4
13 11 9 11 12 10 8 8 8 7 5 6 6 6 5 5 4 5 6 5 6 8 7 6 6 8 14 18 20 21 21 21 20 19 17 16 15 13 11 9 7 5 4
15 12 10 12 11 10 11 11 9 9 6 4 4 4 4 5 5 5 5 4 6 6 6 6 5 4 5 12 16 18 21 21 21 21 19 18 16 14 12 9 7 5 5
15 13 13 12 12 12 13 11 10 7 5 4 5 4 4 4 3 4 4 5 5 4 5 6 6 6 5 4 7 13 15 19 20 21 22 21 19 16 12 9 7 6 6
15 14 13 12 12 11 11 13 11 10 9 6 6 5 4 6 3 2 2 2 3 4 4 4 6 7 7 6 5 10 13 15 19 19 21 21 20 17 14 11 9 7 5
14 13 13 12 12 11 11 12 12 10 10 9 5 5 4 4 4 2 1 1 1 2 3 3 5 7 7 6 7 10 13 14 18 20 20 20 19 17 15 12 9 8 8
12 13 13 11 12 11 12 13 14 13 9 9 7 4 4 3 3 4 3 2 1 1 1 3 3 4 5 5 6 9 13 14 16 19 20 19 18 16 14 12 12 11 9
13 16 17 13 13 12 13 13 13 15 13 11 8 6 5 5 5 4 4 3 2 1 1 1 3 3 3 4 6 11 12 11 11 13 15 15 15 14 14 15 14 12 12
14 17 19 17 15 15 15 14 13 14 14 13 10 8 7 6 4 5 5 4 3 1 1 1 1 2 3 3 5 10 10 11 12 13 13 13 14 15 16 14 14 13 12
14 18 20 19 19 18 17 15 13 13 12 11 10 9 7 6 4 5 6 6 4 1 1 2 1 1 3 3 6 9 8 13 15 16 16 15 14 14 15 15 14 13 13
16 19 20 20 20 19 17 16 12 13 11 10 9 8 7 5 4 3 4 5 7 5 4 3 2 1 2 3 8 5 7 13 15 16 17 16 15 14 15 15 15 14 14
17 19 19 20 20 18 17 14 12 11 10 7 5 5 4 3 3 3 4 3 4 5 4 4 3 1 2 3 8 6 6 15 16 17 17 17 16 15 15 14 14 14 13
18 18 18 19 19 17 17 14 12 9 7 4 2 2 3 2 3 3 4 4 4 4 4 1 1 1 2 4 5 4 5 6 8 16 18 17 16 14 13 13 13 13 13
17 17 17 18 18 17 18 17 15 10 5 4 3 2 3 2 2 3 3 5 4 4 4 3 1 1 2 2 4 5 4 5 6 14 17 17 15 14 13 12 12 12 11
17 17 16 17 18 16 17 18 18 16 12 10 8 6 5 4 4 3 4 4 3 3 3 3 2 2 2 2 3 3 3 2 3 8 15 16 16 15 13 13 12 11 11
17 17 15 16 17 16 13 15 17 17 15 13 12 11 10 8 5 5 4 4 3 3 3 4 3 2 2 2 3 3 3 3 2 1 7 8 11 12 11 11 11 11 10
17 17 14 15 16 14 12 12 13 14 14 14 13 13 14 16 16 8 5 4 3 3 3 3 3 3 2 2 2 2 3 3 3 2 3 2 3 4 4 7 10 11 11
16 16 14 14 15 14 21 20 13 9 10 12 12 11 12 15 18 19 19 17 12 6 2 2 2 3 3 2 2 1 3 4 3 2 3 3 3 4 3 3 11 14 14
15 15 14 14 14 18 27 20 17 9 9 10 10 10 10 12 15 12 17 20 19 21 17 5 4 4 3 2 2 3 2 3 4 3 2 3 3 4 4 8 16 15 15
12 12 12 13 13 17 27 24 15 8 7 9 10 9 10 10 11 12 11 12 12 13 13 11 9 8 7 6 5 3 4 7 6 5 4 3 3 4 6 6 13 15 14
9 10 10 12 13 16 24 25 14 6 6 7 9 9 8 8 16 16 11 10 11 11 18 23 23 21 23 19 11 5 4 4 4 4 5 3 3 3 4 5 8 13 13
11 11 11 11 12 13 21 24 18 4 6 6 7 8 13 14 19 17 10 8 9 8 9 11 14 17 15 17 19 11 6 4 4 4 5 3 3 3 4 3 3 5 6
Wind_Direction
352 341 328 312 293 280 276 282 275 271 265 255 243 235 240 240 242 242 248 249 251 253 256 254 239 224 216 211 208 205 204 205 205 204 201 199 199 199 198 193 186 185 198
355 347 337 326 312 296 274 259 258 263 266 261 258 247 243 242 240 241 240 247 247 248 249 250 245 230 222 218 212 208 207 208 208 207 205 203 204 204 205 207 201 197 206
354 349 340 334 329 316 296 276 262 250 251 251 254 252 247 244 241 241 238 234 242 244 244 245 245 234 224 221 219 213 210 211 209 206 205 206 207 209 209 210 209 211 220
352 346 339 334 330 324 308 288 272 264 254 245 246 248 241 239 239 238 236 231 230 237 241 240 240 236 229 224 223 221 214 212 211 207 205 205 205 207 208 208 205 210 224
348 342 331 330 329 324 317 304 287 259 257 255 252 249 236 233 236 234 232 231 226 227 230 237 235 232 228 228 226 226 223 217 213 210 205 202 202 205 206 203 202 207 220
342 338 330 330 329 324 321 316 300 278 253 251 258 255 241 233 232 231 234 234 227 223 219 221 228 231 228 225 226 228 229 226 221 213 205 199 200 202 201 201 200 203 216
339 335 334 330 329 323 315 310 305 290 269 244 247 262 262 243 237 236 231 230 230 224 211 207 210 216 229 230 224 225 229 226 226 220 208 198 197 197 199 201 202 206 215
336 335 335 330 326 322 318 316 315 299 279 231 218 234 267 287 257 239 232 225 227 220 217 209 202 210 214 216 219 219 223 226 226 225 215 201 194 193 195 199 210 218 220
332 330 330 328 322 320 317 315 310 304 292 269 218 202 204 225 244 272 244 232 224 209 216 219 218 219 216 213 212 213 210 220 225 223 217 205 194 190 193 200 210 214 209
324 325 326 322 318 316 313 312 313 306 294 279 250 223 222 193 179 215 254 250 241 201 209 217 226 228 221 213 209 205 202 206 218 218 211 203 196 193 195 195 190 158 132
322 323 320 317 316 313 310 309 311 306 293 277 261 225 215 234 205 159 196 231 228 204 211 210 209 219 218 210 201 198 193 195 206 210 205 199 194 191 192 180 153 137 129
328 329 326 321 317 312 307 306 301 299 291 278 263 234 202 187 188 170 167 188 205 238 277 249 191 187 186 186 186 175 171 168 166 172 172 173 175 170 156 142 135 130 123
329 330 329 324 318 310 304 298 293 291 288 275 260 245 234 221 183 169 157 159 176 227 304 276 232 173 163 160 161 156 150 138 127 122 122 126 128 130 134 135 132 127 120
324 325 325 321 315 309 303 296 289 283 281 270 261 249 238 225 198 181 162 148 145 177 280 255 291 191 158 159 160 151 146 138 131 126 121 118 121 129 133 131 129 126 121
322 324 325 323 318 311 303 295 285 282 276 263 251 240 231 218 202 191 161 152 149 162 211 228 228 204 153 149 159 147 143 146 142 138 136 133 132 136 134 130 128 125 121
325 324 328 327 323 319 313 303 289 280 273 261 243 215 203 197 185 171 146 128 130 141 178 212 202 169 149 145 162 148 150 149 147 145 143 140 141 142 136 133 130 127 124
327 328 333 332 332 334 333 326 313 294 280 275 273 199 159 157 153 132 127 121 117 124 141 175 120 114 127 145 146 140 144 144 152 151 150 148 146 145 142 138 136 136 133
330 330 336 338 342 353 355 351 345 340 342 4 14 43 63 66 78 103 116 122 126 124 130 149 135 96 95 149 144 146 149 154 153 162 158 156 154 154 152 148 146 144 139
333 333 341 343 345 355 10 8 4 3 10 20 24 31 46 69 64 59 71 90 104 115 120 132 129 87 77 85 120 118 126 125 156 170 166 164 163 162 162 159 156 151 147
337 337 345 347 347 349 13 18 12 10 10 16 20 25 31 40 56 63 64 67 84 103 121 126 125 109 91 60 114 130 121 101 92 119 165 167 169 165 164 163 158 151 148
340 340 344 350 350 347 11 32 20 13 12 14 18 21 28 30 34 52 74 66 75 91 120 136 135 129 111 88 105 121 128 111 64 42 106 97 118 104 112 132 131 133 128
341 342 346 350 352 349 5 28 35 19 18 18 17 17 24 29 26 35 53 57 58 60 72 103 119 122 98 77 57 83 126 134 129 16 92 61 65 87 91 98 120 118 113
341 344 347 350 349 347 358 12 30 31 26 26 24 21 25 30 36 34 40 41 41 44 46 52 69 84 96 72 75 73 69 87 96 11 50 87 62 71 69 99 107 106 102
338 340 340 346 347 348 354 4 24 27 24 23 21 24 30 34 49 53 49 46 41 43 52 51 54 54 66 66 59 69 94 100 86 38 5 105 91 77 64 64 92 95 90
337 339 340 344 348 347 352 360 18 3 18 18 15 18 35 43 59 62 56 52 45 39 51 61 61 56 53 54 52 53 58 101 99 51 14 65 86 85 72 51 60 76 77
344 344 344 344 346 342 349 355 15 13 19 18 15 10 37 64 68 66 58 58 58 52 56 58 57 53 50 47 50 45 39 55 82 76 15 42 68 86 92 65 45 41 48